| time (UTC) | temp F | wind direction | speed knots | gust knots | rain 1hr in | rain 24hr in | rain mn in | humidity % | barometer mb |
| 20260502170506 | 58 | 332 | 2.6 | 7.8 | 0.00 | 0.00 | 0.00 | 44 | 1020.9 |
| 20260502164011 | 58 | 113 | 1.7 | 7.8 | 0.00 | 0.00 | 0.00 | 46 | 1020.9 |
| 20260502163511 | 58 | 350 | 5.2 | 7.8 | 0.00 | 0.00 | 0.00 | 46 | 1020.9 |
| 20260502163033 | 58 | 317 | 2.6 | 7.8 | 0.00 | 0.00 | 0.00 | 45 | 1021.0 |
| 20260502162508 | 58 | 360 | 3.5 | 7.8 | 0.00 | 0.00 | 0.00 | 43 | 1021.0 |
| 20260502162007 | 58 | 26 | 2.6 | 8.7 | 0.00 | 0.00 | 0.00 | 44 | 1021.0 |
| 20260502161522 | 58 | 9 | 5.2 | 8.7 | 0.00 | 0.00 | 0.00 | 47 | 1021.1 |
| 20260502161003 | 57 | 9 | 2.6 | 8.7 | 0.00 | 0.00 | 0.00 | 45 | 1021.0 |
| 20260502160507 | 57 | 9 | 1.7 | 7.8 | 0.00 | 0.00 | 0.00 | 48 | 1020.9 |
| 20260502152020 | 54 | 311 | 2.6 | 7.8 | 0.00 | 0.00 | 0.00 | 55 | 1021.0 |
| 20260502151536 | 55 | 344 | 5.2 | 7.8 | 0.00 | 0.00 | 0.00 | 56 | 1021.0 |
| 20260502151010 | 54 | 2.6 | 7.0 | 0.00 | 0.00 | 0.00 | 1020.9 | ||
| 20260502150513 | 54 | 338 | 3.5 | 7.0 | 0.00 | 0.00 | 0.00 | 59 | 1021.0 |
| 20260502130508 | 47 | 352 | 3.5 | 6.1 | 0.00 | 0.00 | 0.00 | 66 | 1019.9 |
| 20260502123507 | 46 | 289 | 2.6 | 5.2 | 0.00 | 0.00 | 0.00 | 69 | 1019.7 |
| 20260502123027 | 46 | 324 | 0.9 | 3.5 | 0.00 | 0.00 | 0.00 | 70 | 1019.7 |
| 20260502122506 | 46 | 313 | 0.9 | 3.5 | 0.00 | 0.00 | 0.00 | 69 | 1019.6 |
| 20260502122006 | 46 | 309 | 2.6 | 3.5 | 0.00 | 0.00 | 0.00 | 69 | 1019.6 |
| 20260502121515 | 45 | 292 | 1.7 | 4.3 | 0.00 | 0.00 | 0.00 | 69 | 1019.5 |
| 20260502121004 | 45 | 321 | 2.6 | 4.3 | 0.00 | 0.00 | 0.00 | 69 | 1019.5 |
| 20260502120507 | 45 | 286 | 1.7 | 4.3 | 0.00 | 0.00 | 0.00 | 71 | 1019.4 |
| 20260502115512 | 45 | 302 | 0.9 | 2.6 | 0.00 | 0.00 | 0.00 | 72 | 1019.3 |
| 20260502115009 | 44 | 307 | 0.9 | 1.7 | 0.00 | 0.00 | 0.00 | 72 | 1019.2 |
| 20260502114524 | 44 | 307 | 0.9 | 1.7 | 0.00 | 0.00 | 0.00 | 72 | 1019.1 |
| 20260502114016 | 44 | 298 | 0.0 | 1.7 | 0.00 | 0.00 | 0.00 | 72 | 1019.0 |
| 20260502113508 | 44 | 298 | 0.0 | 1.7 | 0.00 | 0.00 | 0.00 | 72 | 1019.0 |
| 20260502113029 | 44 | 298 | 0.0 | 1.7 | 0.00 | 0.00 | 0.00 | 72 | 1018.9 |
| 20260502112506 | 45 | 324 | 0.9 | 1.7 | 0.00 | 0.00 | 0.00 | 72 | 1018.9 |
| 20260502112009 | 45 | 323 | 0.0 | 1.7 | 0.00 | 0.00 | 0.00 | 71 | 1018.9 |
| 20260502111527 | 45 | 331 | 0.0 | 1.7 | 0.00 | 0.00 | 0.00 | 71 | 1018.9 |
| 20260502111003 | 45 | 310 | 0.0 | 1.7 | 0.00 | 0.00 | 0.00 | 70 | 1018.7 |
| 20260502110506 | 45 | 316 | 0.0 | 1.7 | 0.00 | 0.00 | 0.00 | 70 | 1018.7 |
| 20260502110027 | 45 | 317 | 0.0 | 1.7 | 0.00 | 0.00 | 0.00 | 70 | 1018.7 |
| 20260502105508 | 45 | 317 | 0.9 | 1.7 | 0.00 | 0.00 | 0.00 | 69 | 1018.7 |
| 20260502105007 | 45 | 333 | 0.0 | 2.6 | 0.00 | 0.00 | 0.00 | 69 | 1018.7 |
| 20260502104527 | 45 | 330 | 0.0 | 2.6 | 0.00 | 0.00 | 0.00 | 69 | 1018.8 |
| 20260502104009 | 45 | 284 | 0.9 | 1.7 | 0.00 | 0.00 | 0.00 | 70 | 1018.8 |
| 20260502103504 | 45 | 296 | 0.9 | 1.7 | 0.00 | 0.00 | 0.00 | 69 | 1018.7 |
| 20260502103007 | 46 | 343 | 0.0 | 2.6 | 0.00 | 0.00 | 0.00 | 70 | 1018.5 |
| 20260502102505 | 46 | 360 | 1.7 | 2.6 | 0.00 | 0.00 | 0.00 | 70 | 1018.5 |
| 20260502102003 | 46 | 336 | 0.0 | 2.6 | 0.00 | 0.00 | 0.00 | 70 | 1018.6 |
| 20260502101512 | 46 | 336 | 0.0 | 1.7 | 0.00 | 0.00 | 0.00 | 70 | 1018.6 |
| 20260502101003 | 46 | 341 | 0.9 | 1.7 | 0.00 | 0.00 | 0.00 | 69 | 1018.6 |
| 20260502100501 | 46 | 360 | 0.0 | 1.7 | 0.00 | 0.00 | 0.00 | 69 | 1018.5 |
| 20260502091511 | 47 | 339 | 0.9 | 2.6 | 0.00 | 0.00 | 0.00 | 67 | 1018.0 |
| 20260502091005 | 47 | 340 | 0.0 | 1.7 | 0.00 | 0.00 | 0.00 | 67 | 1017.9 |
| 20260502090503 | 47 | 352 | 0.0 | 1.7 | 0.00 | 0.00 | 0.00 | 67 | 1017.9 |
| 20260502071533 | 48 | 329 | 0.0 | 1.7 | 0.00 | 0.00 | 0.00 | 74 | 1017.7 |
| 20260502071006 | 48 | 329 | 0.0 | 1.7 | 0.00 | 0.00 | 0.00 | 74 | 1017.7 |
| 20260502070513 | 0 | 328 | 0.0 | 0.0 | 0.00 | 0.00 | 0.00 | 1017.7 | |
| 20260502070052 | 0 | 0.0 | 0.0 | 0.00 | 0.00 | 0.00 | 1017.7 | ||
| 20260502065511 | 0 | 0.0 | 0.0 | 0.00 | 0.00 | 0.00 | 1017.8 | ||
| 20260502065019 | 0 | 0.0 | 0.0 | 0.00 | 0.00 | 0.00 | 1017.9 | ||
| 20260502064533 | 49 | 0.0 | 0.0 | 0.00 | 0.00 | 0.00 | 72 | 1017.8 | |
| 20260502064010 | 49 | 329 | 0.0 | 1.7 | 0.00 | 0.00 | 0.00 | 72 | 1017.8 |
| 20260502063515 | 49 | 327 | 0.0 | 0.9 | 0.00 | 0.00 | 0.00 | 72 | 1017.8 |
| 20260502063021 | 0 | 328 | 0.0 | 0.0 | 0.00 | 0.00 | 0.00 | 71 | 1017.9 |
| 20260502062511 | 0 | 0.0 | 0.0 | 0.00 | 0.00 | 0.00 | 1017.9 | ||
| 20260502062013 | 50 | 0.0 | 0.0 | 0.00 | 0.00 | 0.00 | 70 | 1017.9 | |
| 20260502061533 | 50 | 302 | 0.9 | 1.7 | 0.00 | 0.00 | 0.00 | 70 | 1017.8 |
| 20260502061003 | 50 | 316 | 0.0 | 1.7 | 0.00 | 0.00 | 0.00 | 68 | 1017.9 |
| 20260502060512 | 51 | 316 | 0.0 | 0.0 | 0.00 | 0.00 | 0.00 | 68 | 1017.9 |
| 20260502060038 | 51 | 316 | 0.0 | 0.0 | 0.00 | 0.00 | 0.00 | 67 | 1017.9 |
| 20260502055511 | 51 | 316 | 0.0 | 0.0 | 0.00 | 0.00 | 0.00 | 66 | 1017.9 |
| 20260502055015 | 51 | 316 | 0.0 | 0.9 | 0.00 | 0.00 | 0.00 | 66 | 1017.8 |
| 20260502054541 | 51 | 316 | 0.0 | 1.7 | 0.00 | 0.00 | 0.00 | 65 | 1017.8 |
| 20260502054010 | 52 | 327 | 0.0 | 1.7 | 0.00 | 0.00 | 0.00 | 65 | 1017.8 |
| 20260502053510 | 52 | 327 | 0.0 | 1.7 | 0.00 | 0.00 | 0.00 | 64 | 1017.8 |
| 20260502053016 | 52 | 327 | 0.0 | 1.7 | 0.00 | 0.00 | 0.00 | 64 | 1017.7 |
| 20260502052514 | 52 | 325 | 0.0 | 1.7 | 0.00 | 0.00 | 0.00 | 63 | 1017.7 |
| 20260502052011 | 52 | 311 | 0.0 | 1.7 | 0.00 | 0.00 | 0.00 | 62 | 1017.7 |
| 20260502051529 | 53 | 327 | 0.0 | 1.7 | 0.00 | 0.00 | 0.00 | 62 | 1017.7 |
| 20260502051013 | 53 | 295 | 0.0 | 0.9 | 0.00 | 0.00 | 0.00 | 60 | 1017.7 |
| 20260502050510 | 53 | 295 | 0.0 | 0.0 | 0.00 | 0.00 | 0.00 | 60 | 1017.6 |
| 20260502050024 | 53 | 295 | 0.0 | 0.0 | 0.00 | 0.00 | 0.00 | 60 | 1017.6 |
| 20260502045501 | 53 | 295 | 0.0 | 0.0 | 0.00 | 0.00 | 0.00 | 60 | 1017.5 |
| 20260502045005 | 53 | 295 | 0.0 | 0.0 | 0.00 | 0.00 | 0.00 | 60 | 1017.5 |
| 20260502044507 | 53 | 295 | 0.0 | 0.9 | 0.00 | 0.00 | 0.00 | 59 | 1017.6 |
| 20260502044011 | 54 | 295 | 0.0 | 1.7 | 0.00 | 0.00 | 0.00 | 59 | 1017.5 |
| 20260502043505 | 54 | 295 | 0.0 | 0.0 | 0.00 | 0.00 | 0.00 | 58 | 1017.5 |
| 20260502043033 | 54 | 295 | 0.0 | 1.7 | 0.00 | 0.00 | 0.00 | 59 | 1017.5 |
| 20260502042512 | 54 | 295 | 0.0 | 0.9 | 0.00 | 0.00 | 0.00 | 59 | 1017.6 |
| 20260502042017 | 54 | 295 | 0.0 | 1.7 | 0.00 | 0.00 | 0.00 | 59 | 1017.6 |
| 20260502041551 | 54 | 295 | 0.0 | 1.7 | 0.00 | 0.00 | 0.00 | 58 | 1017.5 |
| 20260502041010 | 54 | 295 | 0.0 | 1.7 | 0.00 | 0.00 | 0.00 | 58 | 1017.6 |
| 20260502040509 | 54 | 287 | 0.0 | 1.7 | 0.00 | 0.00 | 0.00 | 58 | 1017.6 |
| 20260502040048 | 54 | 275 | 0.0 | 0.0 | 0.00 | 0.00 | 0.00 | 57 | 1017.6 |
| 20260502035510 | 54 | 275 | 0.0 | 1.7 | 0.00 | 0.00 | 0.00 | 57 | 1017.6 |
| 20260502035013 | 55 | 275 | 0.0 | 1.7 | 0.00 | 0.00 | 0.00 | 57 | 1017.6 |
| 20260502034530 | 55 | 275 | 0.0 | 0.0 | 0.00 | 0.00 | 0.00 | 56 | 1017.6 |
| 20260502034014 | 55 | 275 | 0.0 | 0.0 | 0.00 | 0.00 | 0.00 | 54 | 1017.7 |
| 20260502033514 | 56 | 275 | 0.0 | 0.0 | 0.00 | 0.00 | 0.00 | 54 | 1017.6 |
| 20260502033031 | 56 | 275 | 0.0 | 0.0 | 0.00 | 0.00 | 0.00 | 54 | 1017.6 |
| 20260502032507 | 56 | 275 | 0.0 | 0.0 | 0.00 | 0.00 | 0.00 | 55 | 1017.5 |
| 20260502032002 | 56 | 275 | 0.0 | 0.0 | 0.00 | 0.00 | 0.00 | 53 | 1017.5 |
| 20260502031503 | 56 | 275 | 0.0 | 0.0 | 0.00 | 0.00 | 0.00 | 54 | 1017.5 |
| 20260502031002 | 56 | 275 | 0.0 | 0.0 | 0.00 | 0.00 | 0.00 | 53 | 1017.6 |
| 20260502030502 | 56 | 275 | 0.0 | 0.0 | 0.00 | 0.00 | 0.00 | 53 | 1017.6 |
| 20260502030003 | 57 | 275 | 0.0 | 1.7 | 0.00 | 0.00 | 0.00 | 53 | 1017.5 |
| 20260502025503 | 57 | 275 | 0.0 | 0.0 | 0.00 | 0.00 | 0.00 | 52 | 1017.6 |
| 20260502025007 | 57 | 275 | 0.0 | 0.0 | 0.00 | 0.00 | 0.00 | 51 | 1017.4 |
| 20260502024506 | 57 | 275 | 0.0 | 1.7 | 0.00 | 0.00 | 0.00 | 51 | 1017.5 |
| 20260502024003 | 57 | 275 | 0.0 | 1.7 | 0.00 | 0.00 | 0.00 | 50 | 1017.4 |
| 20260502023504 | 58 | 275 | 0.0 | 1.7 | 0.00 | 0.00 | 0.00 | 49 | 1017.3 |
| 20260502023020 | 58 | 275 | 0.0 | 1.7 | 0.00 | 0.00 | 0.00 | 48 | 1017.2 |
| 20260502022503 | 58 | 275 | 0.0 | 0.9 | 0.00 | 0.00 | 0.00 | 49 | 1017.1 |
| 20260502022005 | 58 | 275 | 0.0 | 0.0 | 0.00 | 0.00 | 0.00 | 48 | 1017.0 |
| 20260502021505 | 59 | 275 | 0.0 | 0.0 | 0.00 | 0.00 | 0.00 | 1017.0 | |
| 20260502021005 | 59 | 275 | 0.0 | 0.0 | 0.00 | 0.00 | 0.00 | 1016.8 | |
| 20260502020502 | 59 | 275 | 0.0 | 0.0 | 0.00 | 0.00 | 0.00 | 45 | 1016.7 |
| 20260502020010 | 59 | 275 | 0.0 | 0.0 | 0.00 | 0.00 | 0.00 | 45 | 1016.8 |
| 20260502015503 | 59 | 275 | 0.0 | 0.0 | 0.00 | 0.00 | 0.00 | 46 | 1016.9 |
| 20260502015004 | 60 | 275 | 0.0 | 0.0 | 0.00 | 0.00 | 0.00 | 46 | 1016.9 |
| 20260502014506 | 60 | 275 | 0.0 | 0.0 | 0.00 | 0.00 | 0.00 | 43 | 1016.8 |
| 20260502014002 | 60 | 275 | 0.0 | 0.0 | 0.00 | 0.00 | 0.00 | 43 | 1016.7 |
| 20260502013502 | 60 | 275 | 0.0 | 0.0 | 0.00 | 0.00 | 0.00 | 42 | 1016.6 |
| 20260502013008 | 61 | 275 | 0.0 | 1.7 | 0.00 | 0.00 | 0.00 | 41 | 1016.6 |
| 20260502012503 | 61 | 275 | 0.0 | 1.7 | 0.00 | 0.00 | 0.00 | 41 | 1016.5 |
| 20260502012004 | 61 | 275 | 0.0 | 1.7 | 0.00 | 0.00 | 0.00 | 39 | 1016.4 |
| 20260502011508 | 61 | 275 | 0.9 | 1.7 | 0.00 | 0.00 | 0.00 | 39 | 1016.3 |
| 20260502011003 | 62 | 283 | 0.9 | 1.7 | 0.00 | 0.00 | 0.00 | 39 | 1016.3 |
| 20260502010503 | 62 | 292 | 0.0 | 1.7 | 0.00 | 0.00 | 0.00 | 39 | 1016.2 |
| 20260502010014 | 62 | 295 | 0.0 | 2.6 | 0.00 | 0.00 | 0.00 | 39 | 1016.1 |
| 20260502005503 | 62 | 299 | 0.0 | 2.6 | 0.00 | 0.00 | 0.00 | 39 | 1016.0 |
| 20260502005002 | 63 | 288 | 0.9 | 1.7 | 0.00 | 0.00 | 0.00 | 38 | 1015.9 |
| 20260502004503 | 63 | 288 | 0.0 | 1.7 | 0.00 | 0.00 | 0.00 | 38 | 1015.9 |
| 20260502004005 | 62 | 288 | 0.0 | 1.7 | 0.00 | 0.00 | 0.00 | 38 | 1015.9 |
| 20260502003503 | 63 | 314 | 0.9 | 1.7 | 0.00 | 0.00 | 0.00 | 38 | 1015.8 |
| 20260502003010 | 63 | 319 | 0.9 | 2.6 | 0.00 | 0.00 | 0.00 | 38 | 1015.7 |
| 20260502002503 | 63 | 338 | 0.0 | 2.6 | 0.00 | 0.00 | 0.00 | 37 | 1015.7 |
| 20260502001005 | 0 | 0.0 | 0.0 | 0.00 | 0.00 | 0.00 | 1015.6 | ||
| 20260501232534 | 64 | 340 | 0.0 | 3.5 | 0.00 | 0.00 | 0.00 | 34 | 1015.7 |
| 20260501230503 | 65 | 318 | 0.9 | 4.3 | 0.00 | 0.00 | 0.00 | 29 | 1015.5 |
| 20260501230031 | 65 | 262 | 2.6 | 7.8 | 0.00 | 0.00 | 0.00 | 29 | 1015.5 |
| 20260501225506 | 66 | 306 | 2.6 | 7.8 | 0.00 | 0.00 | 0.00 | 30 | 1015.5 |
| 20260501225005 | 66 | 300 | 1.7 | 5.2 | 0.00 | 0.00 | 0.00 | 30 | 1015.4 |
| 20260501224519 | 66 | 20 | 2.6 | 9.6 | 0.00 | 0.00 | 0.00 | 30 | 1015.4 |
| 20260501224004 | 66 | 305 | 2.6 | 9.6 | 0.00 | 0.00 | 0.00 | 30 | 1015.4 |
| 20260501223503 | 66 | 338 | 1.7 | 6.1 | 0.00 | 0.00 | 0.00 | 31 | 1015.4 |
| 20260501223019 | 65 | 279 | 1.7 | 9.6 | 0.00 | 0.00 | 0.00 | 32 | 1015.5 |
| 20260501222506 | 65 | 307 | 1.7 | 9.6 | 0.00 | 0.00 | 0.00 | 30 | 1015.5 |
| 20260501222007 | 65 | 323 | 7.0 | 9.6 | 0.00 | 0.00 | 0.00 | 29 | 1015.6 |
| 20260501221505 | 65 | 288 | 4.3 | 9.6 | 0.00 | 0.00 | 0.00 | 30 | 1015.6 |
| 20260501221004 | 65 | 286 | 3.5 | 8.7 | 0.00 | 0.00 | 0.00 | 30 | 1015.6 |
| 20260501220503 | 65 | 342 | 5.2 | 8.7 | 0.00 | 0.00 | 0.00 | 29 | 1015.6 |
| 20260501220010 | 65 | 281 | 4.3 | 9.6 | 0.00 | 0.00 | 0.00 | 30 | 1015.6 |
| 20260501215504 | 65 | 35 | 5.2 | 10.4 | 0.00 | 0.00 | 0.00 | 29 | 1015.5 |
| 20260501215004 | 66 | 291 | 6.1 | 10.4 | 0.00 | 0.00 | 0.00 | 29 | 1015.6 |
| 20260501214519 | 66 | 21 | 3.5 | 8.7 | 0.00 | 0.00 | 0.00 | 29 | 1015.6 |
| 20260501214003 | 66 | 344 | 3.5 | 8.7 | 0.00 | 0.00 | 0.00 | 29 | 1015.7 |
| 20260501213504 | 66 | 352 | 2.6 | 9.6 | 0.00 | 0.00 | 0.00 | 29 | 1015.8 |
| 20260501213022 | 65 | 12 | 2.6 | 9.6 | 0.00 | 0.00 | 0.00 | 28 | 1015.9 |
| 20260501212506 | 65 | 326 | 5.2 | 9.6 | 0.00 | 0.00 | 0.00 | 29 | 1016.1 |
| 20260501212004 | 65 | 307 | 5.2 | 9.6 | 0.00 | 0.00 | 0.00 | 28 | 1016.3 |
| 20260501211518 | 65 | 298 | 4.3 | 14.8 | 0.00 | 0.00 | 0.00 | 28 | 1016.4 |
| 20260501211009 | 66 | 327 | 6.1 | 12.2 | 0.00 | 0.00 | 0.00 | 30 | 1016.5 |
| 20260501210506 | 65 | 290 | 0.9 | 7.8 | 0.00 | 0.00 | 0.00 | 29 | 1016.6 |
| 20260501210007 | 64 | 298 | 0.9 | 7.8 | 0.00 | 0.00 | 0.00 | 30 | 1016.8 |
| 20260501205503 | 65 | 360 | 3.5 | 7.0 | 0.00 | 0.00 | 0.00 | 29 | 1016.9 |
| 20260501205007 | 65 | 297 | 2.6 | 11.3 | 0.00 | 0.00 | 0.00 | 30 | 1017.0 |
| 20260501204521 | 65 | 285 | 5.2 | 11.3 | 0.00 | 0.00 | 0.00 | 30 | 1017.1 |
| 20260501204008 | 65 | 18 | 2.6 | 8.7 | 0.00 | 0.00 | 0.00 | 29 | 1017.2 |
| 20260501203503 | 64 | 18 | 2.6 | 5.2 | 0.00 | 0.00 | 0.00 | 30 | 1017.2 |
| 20260501203023 | 64 | 242 | 2.6 | 6.1 | 0.00 | 0.00 | 0.00 | 29 | 1017.3 |
| 20260501202506 | 64 | 9 | 2.6 | 8.7 | 0.00 | 0.00 | 0.00 | 29 | 1017.4 |
| 20260501202009 | 64 | 217 | 3.5 | 8.7 | 0.00 | 0.00 | 0.00 | 29 | 1017.5 |
| 20260501201523 | 64 | 271 | 0.9 | 7.0 | 0.00 | 0.00 | 0.00 | 29 | 1017.6 |
| 20260501201007 | 64 | 169 | 2.6 | 9.6 | 0.00 | 0.00 | 0.00 | 28 | 1017.6 |
| 20260501200513 | 64 | 333 | 3.5 | 9.6 | 0.00 | 0.00 | 0.00 | 28 | 1017.7 |
| 20260501200027 | 64 | 50 | 1.7 | 6.1 | 0.00 | 0.00 | 0.00 | 29 | 1017.7 |
| 20260501195509 | 64 | 310 | 2.6 | 7.8 | 0.00 | 0.00 | 0.00 | 29 | 1017.9 |
| 20260501195010 | 63 | 347 | 1.7 | 7.0 | 0.00 | 0.00 | 0.00 | 28 | 1018.0 |
| 20260501194512 | 64 | 306 | 1.7 | 7.8 | 0.00 | 0.00 | 0.00 | 27 | 1018.1 |
| 20260501194010 | 64 | 327 | 3.5 | 8.7 | 0.00 | 0.00 | 0.00 | 29 | 1018.0 |
| 20260501193503 | 64 | 261 | 4.3 | 8.7 | 0.00 | 0.00 | 0.00 | 28 | 1018.0 |
| 20260501193014 | 64 | 249 | 4.3 | 8.7 | 0.00 | 0.00 | 0.00 | 27 | 1018.2 |
| 20260501192504 | 65 | 350 | 2.6 | 7.8 | 0.00 | 0.00 | 0.00 | 29 | 1018.3 |
| 20260501192010 | 64 | 12 | 3.5 | 7.8 | 0.00 | 0.00 | 0.00 | 28 | 1018.2 |
| 20260501191503 | 65 | 108 | 4.3 | 7.8 | 0.00 | 0.00 | 0.00 | 28 | 1018.3 |
| 20260501191003 | 64 | 261 | 1.7 | 4.3 | 0.00 | 0.00 | 0.00 | 28 | 1018.3 |
| 20260501190510 | 64 | 277 | 1.7 | 6.1 | 0.00 | 0.00 | 0.00 | 28 | 1018.3 |
| 20260501190001 | 64 | 282 | 3.5 | 7.0 | 0.00 | 0.00 | 0.00 | 27 | 1018.3 |
| 20260501185509 | 63 | 309 | 1.7 | 10.4 | 0.00 | 0.00 | 0.00 | 28 | 1018.3 |
| 20260501185004 | 63 | 269 | 3.5 | 8.7 | 0.00 | 0.00 | 0.00 | 29 | 1018.3 |
| 20260501184527 | 64 | 300 | 5.2 | 11.3 | 0.00 | 0.00 | 0.00 | 29 | 1018.3 |
| 20260501184007 | 63 | 349 | 4.3 | 11.3 | 0.00 | 0.00 | 0.00 | 27 | 1018.3 |
| 20260501183512 | 64 | 302 | 6.1 | 9.6 | 0.00 | 0.00 | 0.00 | 27 | 1018.4 |
| 20260501183024 | 64 | 314 | 1.7 | 4.3 | 0.00 | 0.00 | 0.00 | 29 | 1018.4 |
| 20260501182507 | 64 | 119 | 2.6 | 4.3 | 0.00 | 0.00 | 0.00 | 29 | 1018.3 |
| 20260501182004 | 63 | 150 | 0.0 | 4.3 | 0.00 | 0.00 | 0.00 | 30 | 1018.4 |
| 20260501181504 | 63 | 104 | 0.9 | 5.2 | 0.00 | 0.00 | 0.00 | 30 | 1018.3 |
| 20260501181005 | 63 | 36 | 3.5 | 6.1 | 0.00 | 0.00 | 0.00 | 30 | 1018.2 |
| 20260501180502 | 63 | 80 | 1.7 | 6.1 | 0.00 | 0.00 | 0.00 | 29 | 1018.4 |
| 20260501180024 | 63 | 36 | 0.9 | 4.3 | 0.00 | 0.00 | 0.00 | 30 | 1018.4 |
| 20260501175509 | 63 | 134 | 0.9 | 4.3 | 0.00 | 0.00 | 0.00 | 29 | 1018.4 |
| 20260501175004 | 62 | 148 | 0.9 | 3.5 | 0.00 | 0.00 | 0.00 | 29 | 1018.4 |
| 20260501174529 | 62 | 40 | 0.9 | 7.0 | 0.00 | 0.00 | 0.00 | 29 | 1018.5 |
| 20260501174011 | 62 | 213 | 2.6 | 7.0 | 0.00 | 0.00 | 0.00 | 30 | 1018.6 |
| 20260501173504 | 61 | 113 | 0.9 | 9.6 | 0.00 | 0.00 | 0.00 | 31 | 1018.5 |
| 20260501173021 | 61 | 126 | 4.3 | 9.6 | 0.00 | 0.00 | 0.00 | 30 | 1018.5 |
| 20260501172504 | 62 | 88 | 1.7 | 5.2 | 0.00 | 0.00 | 0.00 | 30 | 1018.5 |